Location: Unspecified
(49.2170°N, 0.0000°E)
Time: 18:56:53
(UTC+00:00)

A-11 Canister half - Pass Details

Date: 22 January 2021
Orbit: 1516 x 1684 km, 47.2° (Epoch: 05 March)

Event Time Altitude Azimuth Distance (km) Brightness Sun altitude
Rises 19:41:23 0° 205° (SSW) 4,748 11.8 -29.2°
Reaches altitude 10° 19:44:54 10° 196° (SSW) 3,743 11.1 -29.7°
Enters shadow 19:50:44 29° 160° (SSE) 2,535 9.9 -30.7°
